Regional Weather Roundup
Issued by NWS Northern Indiana

Home | Current Version | Previous Version | Text Only | Print | Product List | Glossary Off
Versions: 1 2 3 4 5 6 7 8 9 10 11 12 13 14 15 16 17 18 19 20 21 22 23 24 25 26 27 28 29 30 31 32 33 34 35 36 37 38 39 40 41 42 43 44 45 46 47 48 49 50

000
ASUS43 KIWX 270010
RWRIWX

KIWX WEATHER ROUNDUP
NATIONAL WEATHER SERVICE NORTHERN INDIANA
800 PM EDT MON JUN 26 2017

NOTE: "FAIR" INDICATES FEW OR NO CLOUDS BELOW 12,000 FEET WITH NO
SIGNIFICANT WEATHER AND/OR OBSTRUCTIONS TO VISIBILITY.

* THESE STATIONS ARE NOT UNDER NWS QUALITY CONTROL. THEY ALSO MAY NOT
  REPORT WEATHER SUCH AS PRECIPITATION OR FOG.

INZ001>027-270100-
NORTHERN INDIANA

CITY           SKY/WX    TMP DP  RH WIND       PRES   REMARKS
GARY*          PTSUNNY   64  50  59 NE17      30.05R
VALPARAISO     CLOUDY    66  50  56 N7        30.04R
6HR MIN TEMP:  65; 6HR MAX TEMP:  74; 6HR PCP: TRACE;

MICHIGAN CITY* MOSUNNY   63  48  59 NE10G20   30.05R
LAPORTE*       PTSUNNY   62  49  61 N14       30.04R
6HR MIN TEMP:  60; 6HR MAX TEMP:  69; 6HR PCP:  0.03;

KNOX*          MOSUNNY   64  36  34 N12       30.03R
SOUTH BEND     MOSUNNY   63  47  55 N18       30.03R
6HR MIN TEMP:  63; 6HR MAX TEMP:  71;

ELKHART*       SUNNY     64  45  48 NW16      30.02R
GOSHEN         CLOUDY    67  42  40 NW15      30.01R
6HR MIN TEMP:  59; 6HR MAX TEMP:  71; 6HR PCP:  0.01;

MONTICELLO*    PTSUNNY   61  53  75 SW8       30.03F
6HR MIN TEMP:  57; 6HR MAX TEMP:  73; 6HR PCP:  0.06;

LOGANSPORT*    CLOUDY    59  52  77 SW8       30.05S
ROCHESTER*     PTSUNNY   64  50  59 W3        30.04S
WARSAW*        MOSUNNY   61  48  63 W9        30.02S
AUBURN*        MOSUNNY   61  50  67 SW5       30.03R
FORT WAYNE     CLOUDY    59  53  80 SW9       30.03F
6HR MIN TEMP:  16; 6HR MAX TEMP:  73; 6HR PCP:  0.12;

HUNTINGTON*    CLOUDY    57  55  94 SW5       30.04F
6HR MIN TEMP:  55; 6HR MAX TEMP:  71; 6HR PCP:  0.16;

PERU/GRISSOM   MOSUNNY   59  51  74 SW9       30.02F
6HR MIN TEMP:  57; 6HR MAX TEMP:  72; 6HR PCP:  0.21;

MARION*        LGT RAIN  57  52  82 W13       30.06F

$$
INZ028>050-270100-
CENTRAL INDIANA

CITY           SKY/WX    TMP DP  RH WIND       PRES   REMARKS
LAFAYETTE      CLOUDY    58  55  90 W5        30.06F
6HR MIN TEMP:  56; 6HR MAX TEMP:  71; 6HR PCP:  0.07;

KOKOMO*        LGT RAIN  58  52  80 SW8       30.06F
6HR MIN TEMP:  57; 6HR MAX TEMP:  72; 6HR PCP:  0.09;

MUNCIE*        CLOUDY    63  50  62 N12       30.07R
6HR MIN TEMP:  63; 6HR MAX TEMP:  73;

INDIANAPOLIS   PTSUNNY   69  47  45 W21       30.06S
6HR MIN TEMP:  69; 6HR MAX TEMP:  74;


$$
MIZ043>046-050>051-056>058-064>065-071>073-077>080-270100-
SOUTHWEST LOWER MICHIGAN

CITY           SKY/WX    TMP DP  RH WIND       PRES   REMARKS
BATTLE CREEK   CLOUDY    61  46  57 NW12      30.02R
6HR MIN TEMP:  59; 6HR MAX TEMP:  70; 6HR PCP:  0.02;

BENTON HARBOR  PTSUNNY   61  47  59 VRB7      30.03S
6HR MIN TEMP:  61; 6HR MAX TEMP:  71;

COLDWATER*     PTSUNNY   65  40  39 NW9G16    30.00R
6HR MIN TEMP:  65; 6HR MAX TEMP:  72;

HILLSDALE*     PTSUNNY   63  39  42 W15G21    29.99R
HOLLAND        PTSUNNY   60  46  59 NW8       30.03R
6HR MIN TEMP:  57; 6HR MAX TEMP:  68; 6HR PCP: TRACE;

GRAND RAPIDS   PTSUNNY   59  45  59 W14       30.00S
6HR MIN TEMP:  57; 6HR MAX TEMP:  68; 6HR PCP: TRACE;

KALAMAZOO      CLOUDY    61  42  49 NW13G24   30.02R
6HR MIN TEMP:  61; 6HR MAX TEMP:  71;

STURGIS*       PTSUNNY   64  44  49 NW8       30.00R
6HR MIN TEMP:  64; 6HR MAX TEMP:  70;

THREE RIVERS*  FAIR      63  44  48 NW13G18   30.02R
6HR MIN TEMP:  63; 6HR MAX TEMP:  71;


$$
OHZ001>008-015>018-024>025-270100-
NORTHWEST OHIO

CITY           SKY/WX    TMP DP  RH WIND       PRES   REMARKS
WAUSEON*       PTSUNNY   64  46  52 SW12G20   30.00S
DEFIANCE       CLOUDY    58  50  75 SW7       30.02S
6HR MIN TEMP:  57; 6HR MAX TEMP:  70; 6HR PCP:  0.09;

FINDLAY        CLOUDY    58  49  72 NW9       30.02S
6HR MIN TEMP:  57; 6HR MAX TEMP:  73; 6HR PCP:  0.15;

TOLEDO EXPRESS CLOUDY    61  51  70 SW9       29.99F
6HR MIN TEMP:  60; 6HR MAX TEMP:  72; 6HR PCP: TRACE;

TOLEDO METCALF CLOUDY    62  52  69 SW12      30.00F
6HR MIN TEMP:  61; 6HR MAX TEMP:  73; 6HR PCP:  0.12;

LIMA           PTSUNNY   60  48  64 N12       30.05R
6HR MIN TEMP:  60; 6HR MAX TEMP:  71;


$$
AND FOR LAKE MICHIGAN COASTAL AND OPEN LAKE BUOY OBSERVATIONS

STATION/POSITION TEMP    WIND        PRES    VSBY  WAVE
                 AIR SEA DIR/SP/G                  HT/PER
                 (F)     (DEG/KT/KT) (MB)    (MI)  (FT/S)
CALUMET HARBOR    63     350/  7/ 14 1016.8R
MICHIGAN CITY     61      10/ 17/ 19   N/A
BURNS HARBOR      63      40/ 17/ 19 1017.6R
SOUTH LAKE BUOY   60 61  340/ 14/ 16 1016.5S         3/ 5
4 MI NW BRIDGMAN  62 69   10/ 14/ 19 1017.2          3/ 4
MICHIGAN CITY     62 66  360/ 14/ 19   N/A           4/ 4

$$
&&




USA.gov is the U.S. government's official web portal to all federal, state and local government web resources and services.